Regional Weather Roundup
Issued by NWS Wakefield, VA

Home | Current Version | Previous Version | Graphics & Text | Print | Product List | Glossary On
Versions: 1 2 3 4 5 6 7 8 9 10 11 12 13 14 15 16 17 18 19 20 21 22 23 24 25 26 27 28 29 30 31 32 33 34 35 36 37 38 39 40 41 42 43 44 45 46 47 48 49 50
000
ASUS41 KAKQ 011615
RWRAKQ

REGIONAL WEATHER ROUNDUP
NATIONAL WEATHER SERVICE WAKEFIELD VA
1200 PM EDT WED JUL 01 2015

Note: "fair" indicates few or no clouds below 12,000 feet with no
significant weather and/or obstructions to visibility. * = Denotes
station may not report precipitation (e.g., rain,snow,etc.),
thunder or fog.

VAZ042-051-052>054-056-011700-
NORTHERN VIRGINIA

CITY           SKY/WX    TMP DP  RH WIND       PRES   REMARKS
WASH NATIONAL  MOSUNNY   81  68  64 S8        29.88R
DULLES         MOSUNNY   80  64  58 SW9       29.88R
FORT BELVOIR   SUNNY     81  69  67 S8        29.88R
QUANTICO       MOSUNNY   79  70  74 S9        29.89R
FREDERICKSBRG* SUNNY     83  68  61 SW9       29.89R
STAFFORD*      SUNNY     80  67  63 SW3       29.94R
WARRENTON      SUNNY     82  69  64 S9        29.89R
CULPEPER*      SUNNY     80  64  59 S7        29.90R
MANASSAS*      SUNNY     81  64  57 SW9       29.88R
LEESBURG*      MOSUNNY   81  64  57 W8        29.89R
WINCHESTER     CLOUDY    79  63  57 SW5       29.89R
FRONT ROYAL*   FAIR      79  64  61 SW6       29.88S
LURAY*         FAIR      81  64  57 S8        29.91R
$$

VAZ048-049-060>072-079>083-011700-
CENTRAL AND SOUTH CENTRAL VIRGINIA

CITY           SKY/WX    TMP DP  RH WIND       PRES   REMARKS
RICHMOND       PTSUNNY   83  63  50 W9        29.91S
CHESTERFIELD*  FAIR      82  59  44 SW8       29.93S
PETERSBURG*    SUNNY     83  69  61 W8        29.93S
HANOVER        SUNNY     81  64  56 SW12      29.93R
TAPPAHANNOCK*  SUNNY     82  65  57 SW5       29.91S
QUINTON*       FAIR      80  66  63 SW6       29.91S
CHARLOTTSVILLE SUNNY     80  62  54 SW8       29.91S
GORDONSVILLE*  FAIR      79  63  57 SW9       29.91R
ORANGE*        SUNNY     81  63  54 SW8       29.92S
LOUISA*        SUNNY     81  66  61 SW6       29.90F
BUMPASS*       FAIR      80  65  60 MISG      29.91S
FARMVILLE*     SUNNY     82  62  51 W8        29.93S
CREWE*         FAIR      81  63  53 W8        29.94S
FORT PICKETT*  FAIR      80  65  60 SW7       29.94S
CHASE CITY*    FAIR      83  67  59 W7        29.96S
CLARKSVILLE*   FAIR      81  66  61 W6        29.96S
SOUTH HILL*    SUNNY     80  65  61 SW6       30.01S
LAWRENCEVILLE* NOT AVBL
EMPORIA*         N/A     79  66  65 W3        29.96R
$$

VAZ088>098-011700-
SOUTHEAST VIRGINIA

CITY           SKY/WX    TMP DP  RH WIND       PRES   REMARKS
NORFOLK        SUNNY     82  65  56 W9        29.92R
VIRGINIA BEACH MOSUNNY   85  66  53 W9        29.91S
NORFOLK NAVAL  SUNNY     80  67  64 W9        29.93S
WEST POINT*    SUNNY     82  67  59 SW8       29.92R
SALUDA*        FAIR      79  67  66 W6        29.90S
NEWPORT NEWS   SUNNY     79  69  71 SW13      29.92R
LANGLEY AFB    MOSUNNY   80  69  68 W12       29.90R
FORT EUSTIS    NOT AVBL
WILLIAMSBURG*  SUNNY     84  70  61 SW8       29.93R
HR EXEC AP*    FAIR      81  70  69 SW6       29.94F
FRANKLIN*      SUNNY     80  67  65 W6        29.94S
WAKEFIELD      SUNNY     81  67  62 W8        29.93R
$$

VAZ020-022-025-037-045-011700-
WEST CENTRAL AND SOUTHWEST VIRGINIA

CITY           SKY/WX    TMP DP  RH WIND       PRES   REMARKS
STAUNTON*      SUNNY     80  62  53 SW12G17   29.95S
WAYNESBORO*    FAIR      75  62  63 SW7       29.96R
HOT SPRINGS VA CLOUDY    66  62  85 W14       30.04S
LYNCHBURG      SUNNY     78  65  63 VRB7      29.98R
DANVILLE       SUNNY     82  66  58 W7        29.97R
SOUTH BOSTON*  FAIR      82  67  60 MISG      29.96S
MARTINSVILLE   SUNNY     82  67  60 SW3       30.00S
ROANOKE        MOSUNNY   78  63  59 W10       29.98F
BLACKSBURG     PTSUNNY   75  64  69 SW7       30.05S
DUBLIN*        CLOUDY    76  63  63 W7        30.04R
MARION*        PTSUNNY   74  64  73 SW8       30.08S
HILLSVILLE*    MOSUNNY   73  61  66 W10G21    30.05S
RICHLANDS*     PTSUNNY   72  66  81 SW6       30.05F
WISE*          CLOUDY    73  61  64 W8        30.07R
ABINGDON*      PTSUNNY   75  67  76 W12       30.05F
$$

MDZ021>025-VAZ099-100-011700-
SOUTHERN MARYLAND AND THE DELMARVA PENINSULA

CITY           SKY/WX    TMP DP  RH WIND       PRES   REMARKS
PATUXENT RIVER SUNNY     80  67  64 SW7       29.88R
BAY BRIDGE APT   N/A     79  64  61 SW7       29.87S
LEONARDTOWN    SUNNY     79  63  57 S6        29.90S
DOVER          SUNNY     81  66  61 SW12      29.84S
GEORGETOWN     MOSUNNY   81  65  58 NW9       29.87S
EASTON         MOSUNNY   82  68  61 W7        29.91R
CAMBRIDGE        N/A     81  66  61 SW7       29.88R
SALISBURY      SUNNY     81  69  67 SW6       29.87S
OCEAN CITY     MOSUNNY   81  68  64 W10G16    29.87S
WALLOPS ISLAND MOSUNNY   81  70  69 W10       29.89S
ACCOMACK*      SUNNY     81  70  69 SW7       29.90S
$$

NCZ012>017-030>032-011700-
NORTH CENTRAL AND EASTERN NORTH CAROLINA

CITY           SKY/WX    TMP DP  RH WIND       PRES   REMARKS
ROANOKE RAPIDS FAIR      81  68  65 SW7       29.95S
RALEIGH        CLOUDY    82  69  64 SW6       29.98R
ELIZABETH CITY SUNNY     82  69  64 SW9       29.94R
AHOSKIE*       SUNNY     79  69  71 CALM      29.96R
EDENTON*         N/A     81  69  68 SW8       29.95S
CURRITUCK*     SUNNY     83  65  54 SW8       29.94S
KILL DEVIL HLS SUNNY     86  69  55 W7        29.93S
MANTEO         SUNNY     83  69  62 W10       29.95S
CAPE HATTERAS  SUNNY     81  72  74 SW14      29.97S
TARBORO*         N/A     83  68  59 W5        29.97S
GOLDSBORO      MOSUNNY   80  71  73 SW7       29.96R
WASHINGTON     SUNNY     81  69  67 SW5       29.97R
GREENVILLE     SUNNY     82  70  65 SW6       29.98S
NEW BERN       SUNNY     82  70  66 SW5       29.98S
WILMINGTON     PTSUNNY   81  72  74 W9        29.99S
$$

VAZ048-011700-
ELSEWHERE

CITY           SKY/WX    TMP DP  RH WIND       PRES   REMARKS
HARRISBURG PA  MOSUNNY   79  62  56 NW13      29.83R
BALTIMORE      MOSUNNY   80  64  58 W9        29.85R
ANNAPOLIS      SUNNY     80  64  58 VRB5      29.86R
ANDREWS AFB    SUNNY     80  69  67 SW12      29.87R
PHILADELPHIA   MOSUNNY   80  63  55 SW12      29.83S
HENDERSON NC   SUNNY     79  65  62 SW5       29.97S
GREENSBORO     CLOUDY    83  61  47 NW9       29.98S
ROCKY MOUNT    SUNNY     83  69  62 SW9       29.96S
$$

VAZ100-011700-
MARINE

STATION/POSITION TIME  TEMP    WIND        PRES    WAVE   SWELL
                       AIR SEA DIR/SP/G            HT/PER HT/PER
                 (UTC) (F)     (DEG/KT/KT) (MB)    (FT/S) (FT/S)
BRANDYWINE LGT   1500   74 73  240/  8/  9 1011.4R
CAPE MAY NJ      1500   76 77  240/  6/  6 1010.9R
LEWES DE         1500   78 70  280/  8/ 10 1010.9S
15NM E FENWICK I 1550   74 72              1011.4R   3/ 7
OCEAN-CITY-INLET 1500   77 72  260/ 10/ 14 1011.2R
WACHAPREAGUE VA  1500   80 79  260/  3/  9 1012.3R
THOMAS POINT MD  1600   75                 1011.9R
GOOSES REEF MD   1600   77 78  180/  8/ 10 1012.8R
COVE POINT MD    1500   73     160/  7/  8 1012.3R
SOLOMONS ISLAND  1500      79                N/A
BISHOPS HEAD MD  1500   75     220/  4/  6 1011.6R
PINEY POINT MD   1500          200/  2/  2   N/A
CAMBRIDGE MD     1500   78 79  210/  3/  6 1011.2R
LEWISETTA VA     1500   77 80  210/  4/  6 1011.5R
RAPPAHANNOCK LGT 1500          240/  8/  9 1012.9R
STINGRAY PT      1600   78 80  230/  8/ 10 1012.6R   1
YORK RVR RNG VA  1500   76     270/  9/ 10 1012.0R
YORKTOWN VA      1500   76 80  260/ 10/ 12 1012.3R
JAMESTOWN VA     1600   79 83  240/  8/ 12   N/A
DOMINION TERM VA 1500   76     260/  9/ 11 1012.8R
KIPTOPEKE VA     1500      82  270/ 11/ 14   N/A
CHES BAY BRIDGE  1500   76 76  260/ 12/ 13 1012.5R
CAPE HENRY VA    1500   79     260/  9/ 13 1011.3R
CHESAPEAKE LGHT  1500   76     230/ 10/ 11 1013.5R
WILLOUBY STN VA  1500   75     250/ 11/ 13 1013.6R
CAPE HENRY BUOY  1528      76                N/A     4/ 8
1ST LANDING BUOY 1600      77              1012.8R   1/ 3
CAPE CHARLES BUO 1526      73                N/A     3/ 7   2/ 7
OFFSHORE WE BUOY 1541      78                N/A     4/ 9   3/ 9
64NM E OF VA BCH 1550   77 77  230/ 12/ 14 1013.0S   6/ 8   5/ 8
DUCK PIER NC     1500   78 58  240/ 14/ 16 1012.7F
44100 DUCK FRF   1524      77                N/A     3/ 9
44056 DUCK FRF   1511      70                N/A     2/ 8
OREGON INLET NC  1500   80 81  230/ 11/ 14 1013.8S
HATTERAS NC      1500   80 81  220/ 11/ 18 1014.5R
DIAMOND SHLS NC  1550   80 82  230/ 19/ 23 1014.7R   5/ 6   3/ 8
CAPE LOOKOUT NC  1600   81     240/ 12/ 15 1015.0F
$$


USA.gov is the U.S. government's official web portal to all federal, state and local government web resources and services.